This demonstration page uses our WeatherBlox Daily Observations layout. Learn more.

Left ArrowRight Arrow

30.21309, -93.2044

Hourly Observations for January 29, 2022

Temp ( °F °C ) Dew Point ( °F °C ) Humidity (%) Winds ( mph kmh ) Pressure ( in mb ) Visibility ( mi km ) Precip ( " mm )
12:15 am 00:15 Clear 43 6.3 24 -4.4 47 47 N 6 9 30.42 1030 10 16 0.00 0.00
12:35 am 00:35 Clear 42 5.5 24 -4.3 50 50 N 6 9 30.42 1030 10 16 0.00 0.00
12:55 am 00:55 Clear 40 4.5 25 -4 54 54 NNW 6 9 30.42 1030 10 16 0.00 0.00
1:15 am 01:15 Clear 41 4.9 24 -4.2 52 52 NNW 5 7 30.41 1030 10 16 0.00 0.00
1:35 am 01:35 Clear 39 3.9 25 -4.1 56 56 NNW 6 9 30.41 1030 10 16 0.00 0.00
1:55 am 01:55 Clear 39 3.9 25 -3.8 58 58 NNW 5 7 30.41 1030 10 16 0.00 0.00
2:15 am 02:15 Clear 39 3.9 25 -3.8 58 58 NNW 5 7 30.41 1030 10 16 0.00 0.00
2:35 am 02:35 Clear 37 2.9 26 -3.3 64 64 NNW 6 9 30.40 1029 10 16 0.00 0.00
2:55 am 02:55 Clear 37 2.8 26 -3.2 65 65 NW 5 7 30.41 1030 10 16 0.00 0.00
3:15 am 03:15 Clear 36 2.3 26 -3.3 67 67 NW 5 7 30.40 1029 10 16 0.00 0.00
3:35 am 03:35 Clear 36 2.1 26 -3.2 68 68 NW 6 9 30.41 1030 10 16 0.00 0.00
3:55 am 03:55 Clear 35 1.6 26 -3.2 71 71 NNW 5 7 30.40 1029 10 16 0.00 0.00
4:15 am 04:15 Clear 36 2.3 26 -3.5 66 66 NNW 6 9 30.40 1029 10 16 0.00 0.00
4:35 am 04:35 Clear 35 1.4 26 -3.3 71 71 NNW 3 6 30.40 1029 10 16 0.00 0.00
4:55 am 04:55 Clear 36 2 26 -3.6 67 67 WNW 5 7 30.41 1030 10 16 0.00 0.00
5:15 am 05:15 Clear 34 0.9 25 -3.9 71 71 NW 5 7 30.41 1030 10 16 0.00 0.00
5:35 am 05:35 Clear 34 1.1 26 -3.3 73 73 NW 3 6 30.42 1030 10 16 0.00 0.00
6:00 am 06:00 Mostly Clear 34 1 27 -3 75 75 NW 7 11 30.42 1030 10 16 0.00 0.00
6:45 am 06:45 Mostly Clear 34 1 27 -3 75 75 NW 7 11 30.44 1031 10 16 0.00 0.00
7:45 am 07:45 Mostly Sunny 34 1 27 -3 75 75 Calm 30.46 1032 10 16 0.00 0.00
8:47 am 08:47 Mostly Sunny 39 4 27 -3 61 61 Calm 30.47 1032 10 16 0.00 0.00
9:52 am 09:52 Mostly Sunny 43 6 25 -4 49 49 Calm 30.48 1032 10 16 0.00 0.00
10:47 am 10:47 Mostly Sunny 46 8 27 -3 46 46 Calm 30.47 1032 10 16 0.00 0.00
11:53 am 11:53 Mostly Sunny 50 10 27 -3 40 40 Calm 30.44 1031 10 16 0.00 0.00
12:45 pm 12:45 Mostly Sunny 54 12 25 -4 33 33 Calm 30.40 1029 10 16 0.00 0.00
1:45 pm 13:45 Mostly Sunny 55 13 27 -3 33 33 WSW 7 11 30.35 1028 10 16 0.00 0.00
2:50 pm 14:50 Mostly Sunny 55 13 25 -4 31 31 SW 13 20 30.32 1027 10 16 0.00 0.00
3:45 pm 15:45 Mostly Sunny 55 13 28 -2 36 36 SSW 14 22 30.31 1026 10 16 0.00 0.00
4:50 pm 16:50 Mostly Sunny 52 11 30 -1 44 44 SSW 13 20 30.30 1026 10 16 0.00 0.00
5:50 pm 17:50 Mostly Clear 48 9 34 1 58 58 SSW 8 13 30.30 1026 10 16 0.00 0.00
6:45 pm 18:45 Mostly Clear 45 7 34 1 66 66 SSW 8 13 30.29 1026 10 16 0.00 0.00
7:45 pm 19:45 Mostly Clear 41 5 34 1 76 76 Calm 30.30 1026 10 16 0.00 0.00
8:50 pm 20:50 Mostly Clear 36 2 34 1 93 93 Calm 30.33 1027 10 16 0.00 0.00
9:45 pm 21:45 Mostly Clear 37 3 34 1 87 87 Calm 30.29 1026 10 16 0.00 0.00
10:15 pm 22:15 Clear 38 3.1 35 1.5 89 89 Calm 30.29 1026 10 16 0.00 0.00
10:35 pm 22:35 Clear 38 3.4 35 1.9 90 90 Calm 30.29 1026 10 16 0.00 0.00
10:55 pm 22:55 Clear 38 3.2 35 1.9 91 91 Calm 30.28 1025 10 16 0.00 0.00
11:15 pm 23:15 Clear 38 3.5 36 2.4 93 93 Calm 30.28 1025 10 16 0.00 0.00
11:35 pm 23:35 Clear 38 3.1 36 2 93 93 Calm 30.28 1025 10 16 0.00 0.00
11:55 pm 23:55 Clear 38 3.1 36 2.1 93 93 Calm 30.27 1025 10 16 0.00 0.00

Powered by AerisWeather